Location: Canazei
(46.4667°N, 11.7667°E)
Time: 02:47:33
(UTC+00:00)

Envisat - Pass Details

Date: 05 October 2021
Orbit: 764 x 766 km, 98.2° (Epoch: 23 October)

Event Time Altitude Azimuth Distance (km) Brightness Sun altitude
Rises 04:23:58 0° 14° (NNE) 3,242 6.5 -9.9°
Reaches altitude 10° 04:26:18 10° 16° (NNE) 2,311 5.7 -9.5°
Maximum altitude 04:31:24 80° 103° (ESE) 782 3.2 -8.6°
Drops below altitude 10° 04:36:28 10° 191° (S) 2,294 5.4 -7.8°
Sets 04:38:46 0° 192° (SSW) 3,216 6.1 -7.4°
